Temp
13 13 14 14 14 14 14 14 14 14 14 14 14 14 13 13 13 13 13 13 13 14 14 14 14 13 13 13 13 13 13 12 13 13 13 12 12 12 11 12 12 11 11 11 11
13 13 13 14 14 14 14 14 14 15 14 14 14 14 14 13 13 13 13 13 13 14 14 14 14 14 13 14 14 13 13 13 13 13 13 12 11 11 11 11 11 11 11 11 11
13 13 13 13 14 14 14 14 14 15 15 15 14 14 14 14 13 13 13 13 13 14 14 14 14 14 14 14 14 14 13 13 13 13 13 13 12 11 11 11 11 11 11 11 11
13 13 13 13 13 14 14 14 14 15 15 15 15 14 14 14 13 13 13 13 14 14 14 14 13 14 14 14 13 13 13 14 14 13 13 13 13 11 10 10 10 10 10 10 10
12 13 13 13 13 13 14 14 14 14 15 15 15 15 14 14 14 14 14 14 14 14 14 14 14 13 14 13 13 14 14 14 14 13 12 12 13 12 11 11 11 11 10 10 10
12 12 13 13 13 13 13 14 14 14 15 15 15 15 14 14 14 14 14 14 14 13 13 13 13 13 13 13 13 14 14 14 13 13 12 12 13 12 12 11 11 11 10 10 10
12 12 12 12 12 13 13 13 14 14 14 15 15 15 15 14 14 14 14 14 14 13 13 13 13 13 13 13 14 14 13 13 13 13 13 12 13 13 12 12 11 11 11 10 10
12 12 12 12 12 12 13 13 13 14 14 14 15 15 15 14 14 14 14 14 14 14 14 13 13 13 13 13 13 13 13 13 12 12 13 12 12 13 13 12 12 11 11 11 10
12 12 12 12 12 12 12 13 13 13 14 14 14 15 14 14 14 14 14 14 14 14 14 14 13 13 13 13 13 13 12 12 12 12 12 12 12 13 13 13 12 12 11 11 10
11 12 12 12 12 12 12 12 13 13 13 14 14 14 15 14 14 14 14 14 14 14 14 14 13 14 14 13 13 13 13 12 11 12 12 12 12 12 13 13 13 12 12 11 11
11 11 12 11 12 12 12 12 12 13 13 13 14 14 15 15 14 14 14 14 14 14 14 14 14 14 14 14 14 14 13 12 12 12 12 12 12 13 12 13 13 12 12 11 11
11 11 11 11 12 12 12 12 12 13 13 13 14 14 15 15 14 14 14 14 14 14 14 14 14 14 14 14 14 13 14 13 12 12 12 11 11 13 13 13 13 13 11 11 11
11 11 11 11 11 11 11 12 12 12 13 14 14 14 14 14 14 14 14 14 14 14 14 14 14 14 14 14 14 13 13 13 12 12 11 11 12 12 13 13 13 13 12 12 11
11 11 11 11 11 11 11 11 11 12 13 14 14 14 14 14 14 14 14 13 13 14 14 14 14 14 14 14 14 13 14 13 12 12 11 12 13 13 13 13 14 14 14 12 11
11 11 11 11 11 11 11 11 11 12 13 13 13 14 14 14 14 14 14 13 13 14 14 14 14 14 14 14 14 13 13 13 12 12 12 11 11 14 13 14 14 14 13 13 12
11 11 11 11 11 11 11 11 11 11 12 12 12 13 13 13 14 14 13 13 13 13 14 14 14 14 14 14 13 14 13 12 12 11 11 11 11 14 13 15 15 14 14 13 12
10 11 11 11 11 11 10 10 10 11 12 12 12 13 13 13 13 13 14 13 13 13 13 13 13 14 14 14 14 14 12 13 13 12 13 12 10 14 15 15 15 15 14 14 13
10 10 11 11 11 11 10 10 10 11 12 12 12 13 12 13 13 14 14 13 13 13 13 13 13 13 14 14 14 14 13 14 14 14 14 11 13 15 15 15 15 14 14 14 14
9 10 10 10 11 11 10 10 11 11 11 12 12 12 12 12 13 13 13 14 14 13 13 13 13 14 14 14 14 14 11 13 12 11 12 13 14 15 15 15 16 15 14 14 14
9 9 9 10 10 10 10 10 10 11 11 12 12 12 12 12 13 13 13 13 13 13 13 14 14 13 14 14 14 13 13 12 12 14 14 14 13 15 15 15 15 15 15 14 13
9 9 9 9 9 10 10 10 10 11 11 11 12 12 13 13 13 13 13 13 13 13 13 13 14 13 13 14 14 14 13 13 13 13 15 15 16 15 15 15 15 15 15 14 13
8 8 9 9 9 9 10 10 10 10 11 11 12 12 12 13 13 13 13 13 13 13 13 14 14 13 14 14 14 13 14 13 14 12 12 11 15 15 15 16 15 15 15 14 13
8 8 8 9 8 9 9 9 10 10 10 11 11 12 12 13 13 13 13 13 13 14 13 14 14 14 14 13 12 12 14 14 13 13 13 15 16 16 16 16 15 15 15 14 14
7 7 8 8 8 8 8 9 9 9 10 10 11 11 12 12 12 12 12 12 13 13 14 14 14 14 15 15 14 14 15 15 15 13 14 14 15 16 16 15 15 15 15 15 15
6 6 7 7 7 7 7 8 8 8 9 9 10 10 11 12 12 12 12 12 12 13 13 13 13 14 15 15 15 15 15 16 15 16 14 16 16 16 16 15 15 15 15 15 15
5 5 6 6 6 6 6 7 7 7 7 8 8 9 10 10 11 12 12 12 12 12 12 13 13 14 14 15 15 14 16 16 16 15 15 15 16 16 15 16 15 15 15 15 15
4 4 5 5 5 4 5 5 6 6 6 7 7 8 8 9 9 10 11 11 11 11 12 12 12 12 13 14 15 13 15 14 16 16 16 15 17 16 16 16 16 16 16 15 15
Height
3163 3163 3164 3164 3165 3165 3165 3165 3165 3165 3166 3168 3169 3172 3175 3178 3180 3181 3182 3184 3183 3184 3185 3187 3187 3189 3188 3188 3189 3189 3190 3189 3190 3190 3192 3192 3193 3192 3192 3193 3192 3192 3194 3195 3193
3160 3161 3161 3162 3162 3164 3164 3164 3164 3164 3165 3167 3168 3170 3173 3177 3180 3182 3184 3183 3184 3185 3187 3187 3188 3189 3189 3189 3191 3191 3190 3191 3191 3191 3192 3193 3194 3194 3194 3194 3194 3194 3195 3195 3195
3158 3158 3158 3159 3160 3161 3162 3163 3163 3163 3163 3165 3167 3169 3172 3176 3180 3182 3183 3184 3184 3185 3186 3188 3188 3189 3188 3190 3191 3190 3192 3192 3192 3193 3194 3194 3193 3193 3194 3195 3195 3196 3196 3196 3196
3154 3154 3155 3155 3156 3158 3159 3161 3161 3162 3162 3163 3165 3167 3170 3175 3180 3180 3182 3183 3185 3185 3187 3187 3187 3188 3189 3189 3190 3192 3192 3193 3194 3194 3194 3195 3195 3194 3195 3196 3196 3197 3198 3197 3197
3151 3150 3151 3152 3153 3154 3155 3157 3159 3160 3161 3162 3163 3165 3169 3173 3177 3179 3181 3183 3184 3185 3186 3186 3187 3188 3188 3188 3190 3191 3192 3193 3194 3195 3195 3196 3197 3196 3196 3196 3197 3198 3199 3199 3199
3147 3147 3147 3148 3149 3150 3151 3154 3156 3158 3159 3160 3161 3164 3167 3171 3175 3177 3180 3182 3184 3185 3186 3187 3188 3188 3188 3188 3189 3190 3192 3193 3195 3196 3196 3196 3198 3197 3198 3197 3198 3199 3200 3199 3199
3144 3143 3143 3143 3144 3145 3147 3150 3152 3154 3156 3158 3159 3161 3165 3170 3172 3176 3179 3182 3184 3185 3186 3186 3187 3188 3189 3189 3189 3190 3192 3193 3195 3196 3196 3196 3199 3199 3199 3199 3199 3199 3199 3199 3199
3141 3140 3139 3139 3139 3140 3143 3145 3148 3150 3153 3155 3157 3159 3162 3165 3169 3174 3177 3179 3182 3184 3185 3185 3187 3188 3189 3190 3191 3192 3193 3193 3194 3195 3197 3198 3198 3198 3198 3199 3199 3199 3199 3199 3199
3139 3138 3136 3136 3135 3136 3139 3141 3144 3147 3149 3152 3155 3157 3160 3163 3166 3171 3175 3179 3181 3183 3183 3185 3186 3188 3190 3189 3191 3192 3192 3193 3193 3194 3196 3196 3197 3197 3197 3198 3198 3199 3199 3199 3199
3137 3136 3134 3133 3132 3133 3135 3138 3140 3143 3146 3148 3151 3156 3156 3159 3163 3168 3172 3175 3179 3181 3182 3184 3185 3187 3188 3189 3190 3189 3192 3191 3193 3194 3194 3194 3195 3196 3195 3196 3197 3197 3198 3199 3198
3134 3133 3132 3131 3130 3130 3132 3135 3140 3142 3142 3145 3147 3150 3152 3155 3161 3165 3169 3172 3176 3179 3181 3183 3185 3186 3187 3188 3188 3188 3189 3188 3190 3191 3193 3192 3192 3193 3193 3193 3196 3195 3196 3197 3197
3131 3130 3129 3129 3128 3128 3130 3132 3134 3138 3139 3140 3143 3146 3149 3151 3156 3161 3165 3169 3172 3176 3178 3182 3182 3184 3185 3186 3187 3187 3186 3187 3188 3189 3190 3190 3189 3189 3189 3190 3193 3193 3195 3196 3197
3128 3127 3127 3126 3126 3126 3127 3129 3131 3133 3135 3137 3139 3143 3146 3150 3152 3156 3162 3166 3170 3174 3176 3179 3181 3182 3184 3184 3185 3185 3184 3185 3186 3187 3186 3187 3184 3184 3185 3186 3188 3190 3191 3193 3195
3125 3124 3124 3124 3126 3124 3125 3127 3128 3130 3133 3135 3136 3140 3143 3146 3150 3154 3158 3165 3167 3171 3175 3177 3178 3180 3181 3182 3184 3183 3182 3182 3183 3184 3183 3183 3179 3178 3179 3181 3183 3186 3188 3190 3192
3121 3121 3122 3122 3123 3123 3124 3124 3126 3129 3131 3133 3132 3133 3137 3144 3148 3150 3155 3160 3163 3169 3173 3175 3177 3179 3179 3180 3181 3182 3181 3181 3181 3181 3181 3180 3180 3172 3173 3174 3177 3181 3185 3187 3190
3118 3118 3119 3120 3121 3122 3122 3123 3126 3130 3128 3129 3129 3131 3135 3139 3144 3147 3152 3158 3163 3167 3170 3172 3174 3176 3177 3177 3178 3179 3180 3180 3179 3179 3179 3177 3178 3165 3166 3169 3173 3178 3183 3185 3188
3114 3115 3116 3117 3119 3119 3121 3123 3127 3126 3127 3128 3128 3129 3133 3137 3141 3144 3148 3152 3157 3162 3166 3169 3170 3173 3175 3176 3177 3177 3179 3180 3179 3178 3175 3174 3173 3162 3164 3167 3171 3175 3179 3182 3184
3112 3112 3113 3115 3116 3118 3120 3124 3124 3123 3124 3125 3126 3128 3131 3135 3139 3141 3144 3149 3153 3159 3163 3166 3169 3170 3172 3174 3176 3175 3177 3179 3176 3175 3174 3171 3167 3162 3161 3163 3167 3171 3175 3178 3181
3110 3110 3111 3112 3114 3116 3119 3120 3120 3121 3122 3123 3124 3126 3129 3132 3137 3140 3142 3145 3149 3153 3161 3162 3166 3167 3170 3171 3174 3172 3174 3176 3176 3175 3175 3168 3163 3159 3158 3160 3164 3168 3171 3175 3178
3108 3109 3109 3110 3112 3114 3117 3117 3118 3119 3120 3121 3123 3124 3126 3130 3135 3137 3140 3143 3146 3150 3155 3159 3162 3163 3166 3167 3169 3170 3171 3175 3175 3174 3170 3164 3162 3159 3157 3159 3162 3166 3170 3173 3176
3105 3107 3108 3109 3110 3112 3113 3115 3116 3117 3119 3121 3121 3122 3124 3127 3131 3134 3138 3140 3142 3146 3151 3154 3158 3159 3160 3160 3164 3166 3166 3169 3171 3171 3168 3164 3159 3157 3154 3156 3161 3167 3170 3173 3175
3102 3104 3105 3107 3110 3109 3110 3111 3114 3115 3117 3119 3120 3121 3123 3125 3128 3130 3132 3136 3138 3141 3144 3150 3153 3155 3157 3157 3159 3160 3162 3165 3167 3169 3167 3166 3161 3155 3152 3156 3161 3166 3170 3172 3174
3099 3100 3101 3103 3104 3105 3107 3108 3110 3113 3115 3117 3118 3120 3121 3123 3127 3128 3129 3132 3134 3137 3140 3144 3147 3151 3153 3155 3155 3156 3158 3161 3163 3165 3163 3164 3161 3156 3156 3157 3161 3165 3169 3171 3173
3096 3096 3097 3098 3100 3102 3104 3105 3107 3109 3111 3114 3116 3118 3120 3121 3123 3125 3127 3130 3131 3133 3136 3139 3141 3143 3144 3149 3152 3152 3153 3156 3159 3162 3160 3158 3160 3158 3158 3159 3162 3165 3168 3171 3174
3091 3091 3092 3092 3094 3097 3100 3101 3103 3105 3107 3109 3111 3114 3117 3120 3121 3123 3125 3127 3129 3131 3133 3134 3136 3137 3140 3143 3145 3148 3150 3150 3152 3153 3157 3157 3155 3157 3159 3161 3163 3166 3168 3170 3173
3087 3088 3088 3088 3089 3092 3093 3096 3099 3100 3103 3105 3107 3110 3113 3116 3118 3120 3122 3124 3126 3129 3130 3131 3132 3133 3135 3137 3138 3140 3143 3144 3147 3150 3150 3152 3150 3153 3157 3158 3160 3164 3166 3169 3173
3081 3082 3083 3083 3084 3087 3089 3090 3093 3096 3098 3100 3103 3106 3108 3111 3113 3115 3118 3120 3122 3125 3127 3128 3129 3130 3131 3132 3133 3132 3132 3138 3141 3144 3147 3147 3146 3149 3150 3153 3156 3160 3163 3167 3172
Wind_Speed
7 6 5 5 2 2 1 2 0 6 10 12 14 15 19 15 9 5 4 6 6 6 4 6 5 8 6 6 7 7 2 4 8 9 9 7 6 5 7 7 11 12 13 13 13
9 9 8 7 6 4 2 1 0 2 8 10 13 15 19 17 12 7 7 6 6 6 6 5 4 4 8 7 4 3 3 5 4 8 10 8 4 3 6 7 8 11 15 16 16
10 10 11 10 9 7 5 4 2 2 5 10 12 15 17 18 14 10 9 10 9 9 7 5 2 4 3 2 6 3 4 4 3 7 8 10 7 2 5 7 9 12 14 18 20
13 12 12 11 11 10 9 7 6 4 3 8 12 14 17 20 14 13 12 11 9 9 5 4 2 8 2 4 3 5 4 2 4 5 8 10 11 5 7 9 15 17 14 17 18
13 14 14 13 13 12 11 10 9 8 6 6 13 15 18 23 17 17 15 13 10 10 8 9 8 4 2 5 5 6 5 3 4 4 9 7 11 12 13 15 16 15 14 16 15
12 13 13 13 14 14 12 12 11 11 9 8 11 16 19 24 21 17 16 14 11 12 10 9 7 2 3 2 6 9 6 6 3 6 6 3 7 9 11 11 9 11 10 12 12
14 15 14 13 12 15 14 12 13 13 12 11 10 16 19 24 25 17 18 14 12 12 8 6 5 4 5 5 11 8 8 6 6 8 4 1 3 8 6 8 8 9 10 10 9
13 14 15 14 12 12 13 12 13 14 14 14 12 14 20 26 27 19 21 18 15 12 8 4 3 2 9 3 12 13 9 10 10 12 9 3 1 5 4 6 4 3 5 7 7
11 12 13 13 12 11 9 12 13 14 15 15 15 15 21 27 29 23 21 18 16 14 10 6 4 5 7 6 11 9 9 8 14 17 14 9 3 5 4 3 3 2 3 4 5
10 11 12 11 11 10 8 10 12 14 15 16 17 15 17 28 31 27 24 22 18 16 13 10 6 5 7 13 7 2 12 11 12 17 21 16 13 11 9 7 3 4 4 4 3
11 10 10 9 10 8 8 9 10 13 15 17 14 21 17 27 33 33 26 24 20 18 17 14 11 8 3 8 4 5 13 13 18 17 21 22 18 15 15 12 7 8 8 5 3
11 10 10 8 9 7 7 8 9 10 14 18 19 21 16 27 35 37 32 28 24 22 19 15 16 10 7 5 8 10 12 11 17 19 16 16 21 19 17 14 9 14 11 2 3
11 10 10 8 7 6 6 7 9 10 11 16 20 18 21 23 34 40 36 30 25 21 21 18 6 12 7 7 9 9 12 11 16 17 21 19 25 25 19 15 14 16 15 10 11
10 10 10 7 6 6 6 7 8 8 6 10 18 21 21 21 32 38 39 33 28 24 20 20 21 17 13 12 10 8 5 8 11 12 7 11 13 16 28 23 18 17 11 7 8
8 10 9 8 7 6 8 7 7 7 3 5 13 19 26 23 20 37 39 35 28 26 24 15 14 17 17 17 11 10 8 5 7 11 10 10 9 13 15 21 17 20 10 10 12
8 9 8 8 7 8 8 6 8 5 3 5 9 17 27 25 14 28 38 34 29 19 20 21 15 13 10 13 12 9 6 4 6 6 5 6 11 11 17 18 13 17 17 13 13
7 8 8 8 8 9 10 7 6 4 7 7 10 13 25 28 19 14 37 38 27 21 20 16 18 16 12 11 10 12 5 2 2 2 3 9 6 15 5 10 13 19 17 12 10
7 6 7 9 10 10 11 12 5 6 8 9 9 11 18 27 22 16 24 37 38 24 18 21 12 20 15 13 12 14 11 3 3 2 6 12 7 6 4 17 19 17 18 15 12
7 6 6 9 11 11 14 15 5 9 7 7 12 14 15 23 19 18 23 32 33 35 23 19 21 16 22 20 16 13 9 11 4 5 5 5 13 21 13 15 20 18 16 12 15
8 6 6 8 11 12 16 13 9 10 6 9 8 12 16 20 22 19 20 25 28 28 28 19 16 25 22 18 20 20 11 5 7 3 4 5 10 10 6 14 19 23 18 15 15
10 10 8 7 10 13 16 16 13 12 8 7 8 10 13 19 19 18 20 11 24 24 26 19 17 12 28 32 26 23 18 13 8 5 3 4 7 15 9 16 21 23 18 15 16
12 14 13 12 10 13 16 16 17 16 10 7 9 12 17 20 21 18 22 24 15 25 30 30 18 17 14 18 23 24 18 13 12 6 7 3 8 17 5 22 26 22 17 15 17
11 15 17 15 15 15 15 17 18 18 16 10 10 15 16 19 15 17 19 22 21 15 26 30 19 16 18 22 19 15 22 21 19 12 12 5 5 10 1 16 23 23 18 14 13
11 11 17 19 20 16 16 17 18 18 20 17 14 15 15 16 11 16 19 17 17 16 21 27 26 28 27 18 16 22 25 22 22 14 15 17 10 0 2 17 26 23 18 14 14
11 14 16 12 20 22 19 14 19 18 17 19 18 18 18 16 15 13 17 16 14 14 18 21 19 30 33 29 30 25 29 33 29 29 20 15 16 13 8 20 25 20 20 17 16
12 14 15 19 18 18 17 24 19 16 19 18 17 19 17 19 17 18 16 17 15 14 12 13 11 18 23 29 33 30 28 27 24 20 30 27 29 18 13 20 27 25 22 21 18
14 14 16 18 20 19 19 20 17 20 20 19 19 19 17 17 19 20 18 18 17 17 17 15 11 10 10 20 25 33 39 30 33 29 24 25 16 16 11 19 32 30 27 23 21
Wind_Direction
301 301 303 305 304 328 25 24 217 213 204 202 204 201 195 188 183 169 131 125 120 105 114 100 75 59 47 123 115 141 91 139 122 103 96 117 78 78 72 70 84 104 116 105 96
290 289 286 282 280 270 272 305 344 214 209 201 204 200 195 190 179 173 134 126 135 128 110 107 76 47 61 100 107 79 113 123 147 82 70 95 149 3 72 108 75 114 115 98 91
286 283 280 276 272 265 248 239 235 220 217 197 203 200 195 188 182 179 146 140 142 138 143 130 68 78 106 91 43 123 134 142 114 82 61 70 60 334 86 127 103 123 109 98 86
287 282 277 273 267 262 254 235 227 218 212 200 198 199 195 185 193 186 162 159 148 145 126 78 191 111 88 279 281 131 145 186 100 126 86 77 44 56 118 129 121 120 105 90 80
284 283 279 273 266 257 247 240 226 218 205 203 196 197 194 187 191 187 174 162 152 140 117 84 119 146 355 266 241 183 191 185 164 163 124 94 53 76 114 120 116 115 107 92 79
294 290 284 276 265 257 249 234 227 221 210 202 199 198 193 190 187 186 178 165 150 141 120 97 92 85 314 189 175 169 200 179 196 199 137 64 64 73 102 139 120 112 97 87 78
304 302 298 292 275 253 244 234 224 219 212 207 201 199 195 194 193 185 183 177 172 158 146 124 59 49 177 129 137 138 178 190 174 201 156 161 56 88 105 100 112 101 95 82 70
302 299 298 297 288 264 241 230 221 218 211 207 202 201 195 195 194 189 190 188 184 174 177 188 149 153 185 160 160 166 189 202 192 206 202 200 312 95 98 106 102 94 102 88 76
304 303 298 296 292 277 244 228 219 214 213 207 202 201 200 195 195 192 194 197 193 185 192 192 183 171 191 185 144 158 176 204 204 209 212 233 244 218 149 143 135 116 76 85 86
298 301 296 294 289 280 243 223 216 211 212 207 203 200 197 199 196 194 197 197 196 196 203 196 206 203 202 183 171 210 222 224 215 227 215 236 246 252 256 256 34 132 179 116 95
294 296 296 293 286 273 238 225 218 214 212 210 208 206 199 198 196 197 197 201 200 200 212 209 216 219 185 211 229 266 320 229 228 236 226 242 250 242 259 255 199 143 113 206 195
288 290 295 293 286 268 234 220 220 217 212 214 209 207 204 199 195 200 202 204 205 206 211 213 224 229 238 235 249 260 280 238 231 229 232 264 259 249 250 251 227 248 222 200 310
283 281 283 284 280 257 232 215 212 215 217 216 211 206 207 201 198 201 205 208 213 210 211 215 188 218 244 271 298 268 281 268 229 243 240 250 262 254 244 240 240 234 254 269 266
282 273 271 272 264 237 222 206 207 207 213 214 210 207 209 204 201 202 208 214 211 213 220 224 225 242 264 275 278 245 295 247 233 237 225 230 276 262 247 251 249 230 250 238 180
281 267 261 259 251 228 216 210 202 174 177 198 194 194 202 202 204 204 205 211 219 219 214 221 229 240 256 264 247 253 297 262 248 235 237 245 263 275 240 241 219 217 190 161 196
279 262 255 246 238 223 211 209 180 166 187 166 177 193 197 196 194 204 205 208 213 207 219 227 230 234 253 236 209 279 282 245 262 246 250 270 234 275 232 234 221 199 181 170 173
274 259 245 229 223 214 203 179 165 199 171 164 180 190 196 194 197 202 207 207 204 197 205 220 229 231 221 198 227 271 227 281 235 208 272 310 243 261 221 194 192 192 186 187 204
272 261 234 220 216 206 197 177 198 179 169 184 191 183 194 201 202 214 208 209 214 211 207 208 214 208 208 228 257 265 228 232 295 298 309 310 248 300 259 209 190 193 210 210 208
255 256 236 213 212 205 195 191 188 182 178 184 188 184 186 195 193 199 207 211 218 219 213 217 223 227 230 240 249 249 225 242 230 278 285 253 283 312 260 208 203 203 185 191 188
245 250 225 209 211 203 195 194 193 186 167 167 163 183 186 190 196 195 196 215 219 223 218 228 218 222 233 237 242 238 256 203 209 245 262 266 285 277 305 208 196 179 178 179 189
235 234 228 214 207 208 205 202 200 193 180 167 171 169 183 185 193 203 208 203 210 214 211 212 216 219 227 237 239 232 234 214 194 194 265 305 313 324 319 192 186 177 177 189 197
235 231 230 224 218 217 218 216 210 212 200 191 180 175 174 178 189 200 200 207 213 214 212 215 221 231 227 229 230 239 231 230 229 217 219 255 293 344 334 182 169 168 170 185 196
243 238 234 230 228 226 224 225 221 221 221 210 195 184 177 179 178 190 191 198 211 211 208 213 213 221 240 244 238 222 235 240 240 267 235 242 310 359 71 182 171 165 176 183 189
247 238 236 236 232 229 226 228 225 223 225 223 218 201 194 191 183 185 181 179 183 194 206 211 216 221 225 231 223 227 239 251 251 243 252 246 255 273 343 176 173 172 172 165 158
249 243 240 241 237 235 230 230 231 228 223 220 217 218 207 209 204 187 187 184 182 186 200 208 218 224 230 240 246 244 246 250 253 250 233 271 280 249 204 185 174 178 180 183 168
263 247 244 243 244 241 235 234 233 235 231 225 221 218 213 214 215 215 206 202 201 202 204 213 226 227 231 234 241 239 240 248 263 245 251 256 269 278 214 202 193 188 194 189 197
270 258 249 246 247 243 239 237 233 233 234 231 228 224 221 215 218 224 225 225 224 219 220 226 220 224 236 237 239 237 235 239 250 254 257 255 274 291 264 222 201 198 196 194 197